FW1168 Weather Reports


Display with metric or nautical units.
time (UTC)temp
F
wind
direction
speed
MPH
gust
MPH
rain 1hr
in
rain 24hr
in
rain mn
in
humidity
%
barometer
mb
20260906174521 78 95 0.0 0.0 0.00 0.00 0.00 61 1019.9
20260906173019 79 89 0.0 0.0 0.00 0.00 0.00 60 1019.8
20260906171517 78 102 0.0 0.0 0.00 0.00 0.00 61 1020.1
20260906170014 78 104 0.0 0.0 0.00 0.00 0.00 65 1020.1
20260906164510 77 117 0.0 0.0 0.00 0.00 0.00 65 1020.3
20260906163006 77 99 0.0 0.0 0.00 0.00 0.00 71 1020.5
20260906161508 76 115 0.0 0.0 0.00 0.00 0.00 71 1020.5
20260906154559 75 134 0.0 0.0 0.00 0.00 0.00 76 1020.5
20260906153051 74 84 0.0 0.0 0.00 0.00 0.00 80 1020.4
20260906151548 73 103 0.0 0.0 0.00 0.00 0.00 83 1020.4
20260906150044 71 94 0.0 0.0 0.00 0.00 0.00 84 1020.5
20260906144542 71 109 0.0 0.0 0.00 0.00 0.00 84 1020.4
20260906143039 70 136 0.0 0.0 0.00 0.00 0.00 89 1020.5
20260906141538 68 152 0.0 0.0 0.00 0.00 0.00 91 1020.3
20260906140034 68 118 0.0 0.0 0.00 0.00 0.00 95 1020.2
20260906134532 67 118 0.0 0.0 0.00 0.00 0.00 95 1020.3
20260906133031 66 116 0.0 0.0 0.00 0.00 0.00 96 1020.2
20260906131539 66 82 0.0 0.0 0.00 0.00 0.00 98 1019.9
20260906130025 65 55 0.0 0.0 0.00 0.00 0.00 98 1019.7
20260906124522 65 55 0.0 0.0 0.00 0.00 0.00 98 1019.8
20260906123022 64 55 0.0 0.0 0.00 0.00 0.00 97 1019.7
20260906121519 64 55 0.0 0.0 0.00 0.00 0.00 97 1019.6
20260906120018 64 54 0.0 0.0 0.00 0.00 0.00 97 1019.5
20260906114516 64 54 0.0 0.0 0.00 0.00 0.00 97 1019.6
20260906113020 64 54 0.0 0.0 0.00 0.00 0.00 97 1019.4
20260906111514 65 47 0.0 0.0 0.00 0.00 0.00 97 1019.5
20260906110013 65 46 0.0 0.0 0.00 0.00 0.00 97 1019.4
20260906104519 65 46 0.0 0.0 0.00 0.00 0.00 97 1019.5
20260906103010 64 46 0.0 0.0 0.00 0.00 0.00 97 1019.2
20260906101508 64 46 0.0 0.0 0.00 0.00 0.00 96 1018.7
20260906100007 65 46 0.0 0.0 0.00 0.00 0.00 96 1018.8
20260906094513 65 46 0.0 0.0 0.00 0.00 0.00 96 1018.5
20260906093004 65 46 0.0 0.0 0.00 0.00 0.00 96 1018.3
20260906091506 65 46 0.0 0.0 0.00 0.00 0.00 96 1018.3
20260906084601 66 46 0.0 0.0 0.00 0.00 0.00 95 1018.0
20260906083101 66 46 0.0 0.0 0.00 0.00 0.00 95 1018.1
20260906081559 66 46 0.0 0.0 0.00 0.00 0.00 95 1018.1
20260906080107 67 46 0.0 0.0 0.00 0.00 0.00 94 1018.3
20260906074556 67 46 0.0 0.0 0.00 0.00 0.00 95 1018.4
20260906073054 67 46 0.0 0.0 0.00 0.00 0.00 94 1018.3
20260906071600 67 46 0.0 0.0 0.00 0.00 0.00 94 1018.4
20260906070050 67 46 0.0 0.0 0.00 0.00 0.00 94 1018.5
20260906064549 67 46 0.0 0.0 0.00 0.00 0.00 93 1018.7
20260906063054 68 46 0.0 0.0 0.00 0.00 0.00 93 1018.7
20260906061551 68 46 0.0 0.0 0.00 0.00 0.00 93 1018.7
20260906060016 68 46 0.0 0.0 0.00 0.00 0.00 93 1018.8
20260906054545 68 46 0.0 0.0 0.00 0.00 0.00 92 1018.7
20260906053050 69 46 0.0 0.0 0.00 0.00 0.00 92 1018.6
20260906051542 69 46 0.0 0.0 0.00 0.00 0.00 92 1018.6
20260906050043 69 46 0.0 0.0 0.00 0.00 0.00 92 1018.5
20260906044539 69 46 0.0 0.0 0.00 0.00 0.00 92 1018.4
20260906043040 69 46 0.0 0.0 0.00 0.00 0.00 92 1018.2
20260906041537 68 46 0.0 0.0 0.00 0.00 0.00 92 1018.2
20260906040038 69 46 0.0 0.0 0.00 0.00 0.00 92 1018.2
20260906034542 69 46 0.0 0.0 0.00 0.00 0.00 91 1017.9
20260906033032 69 46 0.0 0.0 0.00 0.00 0.00 91 1018.1
20260906031529 70 46 0.0 0.0 0.00 0.00 0.00 90 1018.0
20260906030026 70 46 0.0 0.0 0.00 0.00 0.00 89 1017.8
20260906024526 71 46 0.0 0.0 0.00 0.00 0.00 88 1017.6
20260906023025 71 46 0.0 0.0 0.00 0.00 0.00 87 1017.2
20260906021525 72 46 0.0 0.0 0.00 0.00 0.00 86 1017.0
20260906020024 72 46 0.0 0.0 0.00 0.00 0.00 85 1016.8
20260906014537 73 46 0.0 0.0 0.00 0.00 0.00 85 1016.5
20260906013023 74 46 0.0 0.0 0.00 0.00 0.00 84 1016.0
20260906011534 74 46 0.0 0.0 0.00 0.00 0.00 83 1016.1
20260906010021 75 46 0.0 0.0 0.00 0.00 0.00 82 1016.0
20260906004533 75 46 0.0 0.0 0.00 0.00 0.00 80 1015.8
20260906003029 76 46 0.0 0.0 0.00 0.00 0.00 79 1015.9
20260906001520 77 63 0.0 0.0 0.00 0.00 0.00 78 1015.7
20260906000019 78 63 0.0 0.0 0.00 0.00 0.00 77 1015.9
20260905234518 78 60 0.0 0.0 0.00 0.00 0.00 76 1015.9
20260905233020 79 57 0.0 0.0 0.00 0.00 0.00 75 1015.7
20260905231518 79 52 0.0 0.0 0.00 0.00 0.00 75 1015.7
20260905230018 80 55 0.0 0.0 0.00 0.00 0.00 73 1015.8
20260905224525 81 96 0.0 0.0 0.00 0.00 0.00 72 1015.8
20260905223016 81 56 0.0 0.0 0.00 0.00 0.00 71 1016.0
20260905221515 82 19 0.0 0.0 0.00 0.00 0.00 69 1016.0
20260905220016 82 17 0.0 0.0 0.00 0.00 0.00 70 1016.2
20260905214513 82 5 0.0 0.0 0.00 0.00 0.00 70 1016.2
20260905213026 82 355 0.0 0.0 0.00 0.00 0.00 71 1016.3
20260905211509 80 355 0.0 0.0 0.00 0.00 0.00 73 1016.4
20260905210010 81 347 0.0 0.0 0.00 0.00 0.00 72 1016.4
20260905204507 81 304 0.0 0.0 0.00 0.00 0.00 74 1016.4
20260905203005 80 306 0.0 0.0 0.00 0.00 0.00 73 1016.5
20260905201505 80 35 0.0 0.0 0.00 0.00 0.00 75 1016.7
20260905200003 80 44 0.0 0.0 0.00 0.00 0.00 74 1016.7
20260905194502 80 44 0.0 0.0 0.00 0.00 0.00 76 1016.8
20260905193109 80 52 0.0 0.0 0.00 0.00 0.00 75 1016.8
20260905191600 79 56 0.0 0.0 0.00 0.00 0.00 78 1016.8
20260905190059 78 247 0.0 0.0 0.00 0.00 0.00 79 1016.7
20260905184551 77 92 0.0 0.0 0.00 0.00 0.00 80 1017.1
20260905183055 76 92 0.0 0.0 0.00 0.00 0.00 82 1017.0
20260905181550 76 49 0.0 0.0 0.00 0.00 0.00 83 1017.3
20260905180049 77 49 0.0 0.0 0.00 0.00 0.00 82 1017.3